This is the latest recevied weather packets stored in our database for station/object OK1UOJ. If no packets are shown the sender has not sent any weather packets the latest 10 day(s).
| Time | Temp. | Humidity | Pressure | Rain* | Wind** | Luminosity | Snow |
|---|---|---|---|---|---|---|---|
| 1777635115 | 20° C | 48% | 1029.3 hPa | - | - | - | - |
| 1777634836 | 19.44° C | 51% | 1029.3 hPa | - | - | - | - |
| 1777634563 | 19.44° C | 47% | 1029.5 hPa | - | - | - | - |
| 1777634558 | 19.44° C | 47% | 1029.5 hPa | - | - | - | - |
| 1777634284 | 20° C | 47% | 1029.5 hPa | - | - | - | - |
| 1777634279 | 20° C | 47% | 1029.5 hPa | - | - | - | - |
| 1777634001 | 20° C | 53% | 1029.6 hPa | - | - | - | - |
| 1777632885 | 20° C | 52% | 1029.7 hPa | - | - | - | - |
| 1777632880 | 20° C | 52% | 1029.7 hPa | - | - | - | - |
| 1777632601 | 20° C | 51% | 1029.8 hPa | - | - | - | - |
| 1777632323 | 20.56° C | 52% | 1029.8 hPa | - | - | - | - |
| 1777632049 | 19.44° C | 52% | 1029.9 hPa | - | - | - | - |
| 1777632044 | 19.44° C | 52% | 1029.9 hPa | - | - | - | - |
| 1777630935 | 18.33° C | 60% | 1030.2 hPa | - | - | - | - |
| 1777630930 | 18.33° C | 60% | 1030.2 hPa | - | - | - | - |
| 1777630095 | 18.33° C | 68% | 1030.3 hPa | - | - | - | - |
| 1777629822 | 17.78° C | 72% | 1030.3 hPa | - | - | - | - |
| 1777629822 | 17.78° C | 72% | 1030.3 hPa | - | - | - | - |
| 1777629817 | 17.78° C | 72% | 1030.3 hPa | - | - | - | - |
| 1777629265 | 17.22° C | 65% | 1030.4 hPa | - | - | - | - |
| 1777629260 | 17.22° C | 65% | 1030.4 hPa | - | - | - | - |
| 1777628709 | 16.67° C | 64% | 1030.4 hPa | - | - | - | - |
| 1777628704 | 16.67° C | 64% | 1030.4 hPa | - | - | - | - |
| 1777628426 | 16.67° C | 66% | 1030.5 hPa | - | - | - | - |
| 1777627596 | 17.22° C | 59% | 1030.5 hPa | - | - | - | - |
* Rain since midnight (hover to see other rain measurements)
** Current wind speed in m/s (hover to see current wind gust speed)